TimeCST,TemperatureF,Dew PointF,Humidity,Sea Level PressureIn,VisibilityMPH,Wind Direction,Wind SpeedMPH,Gust SpeedMPH,PrecipitationIn,Events,Conditions,WindDirDegrees,DateUTC
12:08 AM,-7.6,-14.8,71,29.99,10.0,NNW,18.4,25.3,N/A,Snow,Light Snow,340,2013-01-31 06:08:00
12:14 AM,-7.6,-14.8,71,29.99,10.0,NNW,17.3,24.2,N/A,Snow,Light Snow,340,2013-01-31 06:14:00
12:16 AM,-7.6,-14.8,71,29.99,10.0,NNW,18.4,24.2,N/A,Snow,Light Snow,340,2013-01-31 06:16:00
12:22 AM,-7.6,-14.8,71,29.99,10.0,NNW,19.6,23.0,N/A,Snow,Light Snow,330,2013-01-31 06:22:00
1:25 AM,-9.4,-14.8,77,30.01,4.0,NNW,18.4,23.0,N/A,Snow,Light Snow,340,2013-01-31 07:25:00
1:40 AM,-9.4,-14.8,77,30.01,4.0,NNW,17.3,-,N/A,Snow,Light Snow,340,2013-01-31 07:40:00
1:55 AM,-8.7,-15.2,73,30.01,5.0,NNW,16.1,-,0.00,Snow,Light Snow,330,2013-01-31 07:55:00
2:23 AM,-9.4,-14.8,77,30.03,6.0,NNW,15.0,23.0,N/A,Snow,Light Snow,340,2013-01-31 08:23:00
2:28 AM,-9.4,-14.8,77,30.03,8.0,NNW,15.0,-,N/A,,Overcast,340,2013-01-31 08:28:00
2:29 AM,-9.4,-16.6,71,30.03,9.0,NNW,16.1,-,N/A,Snow,Light Snow,340,2013-01-31 08:29:00
2:38 AM,-9.4,-16.6,71,30.03,6.0,NNW,15.0,23.0,N/A,Snow,Light Snow,340,2013-01-31 08:38:00
2:43 AM,-9.4,-16.6,71,30.04,7.0,NNW,13.8,-,N/A,Snow,Light Snow,340,2013-01-31 08:43:00
2:55 AM,-9.0,-16.1,71,30.04,10.0,NNW,17.3,-,0.00,,Overcast,340,2013-01-31 08:55:00
3:28 AM,-9.4,-16.6,71,30.05,10.0,NNW,17.3,-,N/A,Snow,Light Snow,340,2013-01-31 09:28:00
3:35 AM,-9.4,-16.6,71,30.05,9.0,NNW,15.0,-,N/A,Snow,Light Snow,340,2013-01-31 09:35:00
3:47 AM,-9.4,-16.6,71,30.05,6.0,NNW,16.1,-,N/A,Snow,Light Snow,340,2013-01-31 09:47:00
3:54 AM,-9.4,-16.6,71,30.06,4.0,NNW,15.0,-,N/A,Snow,Light Snow,340,2013-01-31 09:54:00
3:55 AM,-9.4,-16.2,72,30.06,5.0,NNW,17.3,-,0.00,Snow,Light Snow,340,2013-01-31 09:55:00
3:57 AM,-9.4,-16.6,71,30.06,5.0,NNW,16.1,-,N/A,Snow,Light Snow,340,2013-01-31 09:57:00
4:22 AM,-9.4,-16.6,71,30.07,4.0,NNW,16.1,24.2,N/A,Snow,Light Snow,340,2013-01-31 10:22:00
4:42 AM,-9.4,-16.6,71,30.08,4.0,NNW,17.3,-,N/A,Snow,Light Snow,330,2013-01-31 10:42:00
4:54 AM,-9.4,-16.6,71,30.09,4.0,NNW,15.0,-,N/A,Snow,Light Snow,340,2013-01-31 10:54:00
4:55 AM,-9.8,-16.4,72,30.09,4.0,NNW,12.7,-,0.00,Snow,Light Snow,340,2013-01-31 10:55:00
5:05 AM,-9.4,-16.6,71,30.09,5.0,NNW,13.8,-,N/A,Snow,Light Snow,340,2013-01-31 11:05:00
5:24 AM,-9.4,-16.6,71,30.10,7.0,NNW,12.7,-,N/A,,Overcast,340,2013-01-31 11:24:00
5:33 AM,-9.4,-16.6,71,30.11,6.0,North,16.1,23.0,N/A,Snow,Light Snow,350,2013-01-31 11:33:00
5:39 AM,-9.4,-16.6,71,30.11,5.0,North,19.6,23.0,N/A,Snow,Light Snow,360,2013-01-31 11:39:00
5:53 AM,-9.4,-14.8,77,30.11,5.0,North,18.4,24.2,N/A,Snow,Light Snow,360,2013-01-31 11:53:00
5:55 AM,-8.9,-15.3,73,30.11,5.0,North,18.4,24.2,0.00,Snow,Light Snow,350,2013-01-31 11:55:00
6:08 AM,-9.4,-16.6,71,30.12,5.0,North,17.3,23.0,N/A,Snow,Blowing Snow,350,2013-01-31 12:08:00
6:12 AM,-9.4,-16.6,71,30.12,5.0,North,21.9,-,N/A,Snow,Blowing Snow,350,2013-01-31 12:12:00
6:19 AM,-9.4,-16.6,71,30.13,5.0,North,17.3,25.3,N/A,Snow,Blowing Snow,350,2013-01-31 12:19:00
6:24 AM,-9.4,-16.6,71,30.13,5.0,North,15.0,-,N/A,Snow,Blowing Snow,350,2013-01-31 12:24:00
6:28 AM,-9.4,-14.8,77,30.13,4.0,North,17.3,21.9,N/A,Snow,Blowing Snow,350,2013-01-31 12:28:00
6:30 AM,-9.4,-14.8,77,30.13,4.0,North,18.4,-,N/A,Snow,Blowing Snow,350,2013-01-31 12:30:00
6:31 AM,-9.4,-14.8,77,30.13,4.0,North,18.4,25.3,N/A,Snow,Blowing Snow,350,2013-01-31 12:31:00
6:35 AM,-9.4,-14.8,77,30.13,4.0,North,20.7,25.3,N/A,Snow,Blowing Snow,350,2013-01-31 12:35:00
6:39 AM,-9.4,-16.6,71,30.14,4.0,North,19.6,27.6,N/A,Snow,Blowing Snow,350,2013-01-31 12:39:00
6:41 AM,-9.4,-16.6,71,30.14,4.0,NNW,20.7,27.6,N/A,Snow,Blowing Snow,340,2013-01-31 12:41:00
6:49 AM,-9.4,-16.6,71,30.14,7.0,North,19.6,27.6,N/A,,Overcast,350,2013-01-31 12:49:00
6:53 AM,-9.4,-16.6,71,30.14,7.0,North,20.7,26.5,N/A,Snow,Blowing Snow,360,2013-01-31 12:53:00
6:54 AM,-9.4,-16.6,71,30.15,7.0,North,20.7,26.5,N/A,Snow,Blowing Snow,360,2013-01-31 12:54:00
6:55 AM,-9.8,-17.0,71,30.14,7.0,North,23.0,26.5,0.00,,Overcast,360,2013-01-31 12:55:00
6:56 AM,-9.4,-16.6,71,30.15,8.0,North,19.6,26.5,N/A,,Overcast,360,2013-01-31 12:56:00
7:07 AM,-9.4,-16.6,71,30.15,6.0,NNW,15.0,-,N/A,,Haze,330,2013-01-31 13:07:00
7:08 AM,-9.4,-16.6,71,30.15,6.0,NNW,15.0,-,N/A,,Haze,330,2013-01-31 13:08:00
7:14 AM,-9.4,-16.6,71,30.16,5.0,NNW,17.3,23.0,N/A,Snow,Light Snow,340,2013-01-31 13:14:00
7:20 AM,-9.4,-16.6,71,30.16,7.0,North,17.3,26.5,N/A,,Overcast,350,2013-01-31 13:20:00
7:22 AM,-9.4,-18.4,65,30.16,8.0,North,17.3,26.5,N/A,,Overcast,360,2013-01-31 13:22:00
7:37 AM,-9.4,-16.6,71,30.17,9.0,NNW,17.3,-,N/A,,Overcast,340,2013-01-31 13:37:00
7:41 AM,-11.2,-18.4,70,30.17,9.0,NNW,16.1,-,N/A,,Overcast,340,2013-01-31 13:41:00
7:43 AM,-11.2,-18.4,70,30.18,9.0,NNW,13.8,-,N/A,,Overcast,340,2013-01-31 13:43:00
7:55 AM,-10.7,-18.2,69,30.18,9.0,NNW,18.4,-,0.00,,Overcast,340,2013-01-31 13:55:00
8:13 AM,-11.2,-18.4,70,30.19,10.0,NNW,16.1,-,N/A,,Overcast,330,2013-01-31 14:13:00
8:55 AM,-11.6,-20.2,66,30.21,10.0,NNW,15.0,-,N/A,,Overcast,340,2013-01-31 14:55:00
9:46 AM,-11.2,-20.2,64,30.24,10.0,NNW,18.4,24.2,N/A,,Overcast,330,2013-01-31 15:46:00
9:48 AM,-11.2,-20.2,64,30.24,10.0,NNW,17.3,24.2,N/A,,Overcast,330,2013-01-31 15:48:00
9:55 AM,-10.8,-20.2,63,30.24,10.0,NNW,17.3,24.2,N/A,,Overcast,340,2013-01-31 15:55:00
10:55 AM,-10.3,-20.0,62,30.26,10.0,NNW,16.1,-,N/A,,Unknown,340,2013-01-31 16:55:00
11:07 AM,-9.4,-20.2,59,30.27,10.0,NNW,19.6,23.0,N/A,,Overcast,340,2013-01-31 17:07:00
11:55 AM,-9.4,-19.7,61,30.27,10.0,NNW,18.4,24.2,N/A,,Overcast,330,2013-01-31 17:55:00
12:39 PM,-9.4,-18.4,65,30.27,10.0,NW,16.1,-,N/A,,Mostly Cloudy,320,2013-01-31 18:39:00
12:55 PM,-9.8,-20.0,61,30.28,10.0,NNW,15.0,23.0,N/A,,Mostly Cloudy,330,2013-01-31 18:55:00
1:43 PM,-9.4,-20.2,59,30.28,10.0,NW,17.3,-,N/A,,Overcast,320,2013-01-31 19:43:00
1:55 PM,-9.9,-20.0,61,30.28,10.0,NW,17.3,-,N/A,,Mostly Cloudy,320,2013-01-31 19:55:00
2:55 PM,-11.2,-22.0,59,30.29,10.0,NNW,17.3,-,0.00,,Mostly Cloudy,330,2013-01-31 20:55:00
3:23 PM,-9.4,-22.0,54,30.30,10.0,NNW,15.0,-,N/A,,Scattered Clouds,330,2013-01-31 21:23:00
3:55 PM,-10.3,-21.3,58,30.30,10.0,NNW,15.0,-,N/A,,Scattered Clouds,330,2013-01-31 21:55:00
4:55 PM,-12.3,-22.5,60,30.31,10.0,NNW,11.5,-,N/A,,Partly Cloudy,340,2013-01-31 22:55:00
5:55 PM,-14.1,-23.3,63,30.31,10.0,NW,6.9,-,N/A,,Clear,320,2013-01-31 23:55:00
6:35 PM,-14.8,-23.8,64,30.31,10.0,NW,8.1,-,N/A,,Partly Cloudy,310,2013-02-01 00:35:00
6:39 PM,-14.8,-23.8,64,30.31,10.0,NW,6.9,-,N/A,,Partly Cloudy,310,2013-02-01 00:39:00
6:55 PM,-15.2,-24.0,64,30.31,10.0,NW,6.9,-,N/A,,Clear,310,2013-02-01 00:55:00
7:55 PM,-15.7,-24.5,64,30.32,10.0,NW,9.2,-,N/A,,Clear,320,2013-02-01 01:55:00
8:55 PM,-16.4,-25.2,64,30.31,10.0,NW,8.1,-,N/A,,Clear,320,2013-02-01 02:55:00
9:55 PM,-17.3,-26.1,64,30.30,10.0,NW,8.1,-,N/A,,Clear,310,2013-02-01 03:55:00
10:55 PM,-18.0,-26.7,65,30.30,10.0,WNW,8.1,-,N/A,,Clear,300,2013-02-01 04:55:00
11:55 PM,-18.8,-27.2,65,30.28,10.0,WNW,4.6,-,N/A,,Clear,290,2013-02-01 05:55:00